This is the latest recevied weather packets stored in our database for station/object KF5JED-13. If no packets are shown the sender has not sent any weather packets the latest 10 day(s).
| Time | Temp. | Humidity | Pressure | Rain* | Wind** | Luminosity | Snow |
|---|---|---|---|---|---|---|---|
| 1778263212 | 26.11° C | 26% | 1011.7 hPa | 0 mm | - | 869 W/m² | - |
| 1778262908 | 25.56° C | 28% | 1011.7 hPa | 0 mm | - | 868 W/m² | - |
| 1778262606 | 25.56° C | 27% | 1011.8 hPa | 0 mm | - | 861 W/m² | - |
| 1778262303 | 26.11° C | 27% | 1011.7 hPa | 0 mm | - | 859 W/m² | - |
| 1778262001 | 25.56° C | 28% | 1012 hPa | 0 mm | - | 852 W/m² | - |
| 1778261697 | 25.56° C | 29% | 1011.6 hPa | 0 mm | - | 845 W/m² | - |
| 1778261393 | 25° C | 29% | 1011.9 hPa | 0 mm | - | 840 W/m² | - |
| 1778261090 | 25° C | 29% | 1011.9 hPa | 0 mm | - | 836 W/m² | - |
| 1778260786 | 25.56° C | 31% | 1012.1 hPa | 0 mm | - | 827 W/m² | - |
| 1778260484 | 25° C | 30% | 1011.9 hPa | 0 mm | - | 819 W/m² | - |
| 1778260180 | 24.44° C | 32% | 1012.1 hPa | 0 mm | - | 813 W/m² | - |
| 1778259877 | 24.44° C | 33% | 1012.2 hPa | 0 mm | - | 803 W/m² | - |
| 1778259574 | 23.89° C | 34% | 1012.3 hPa | 0 mm | - | 796 W/m² | - |
| 1778259272 | 23.33° C | 34% | 1012.3 hPa | 0 mm | - | 788 W/m² | - |
| 1778258967 | 23.89° C | 34% | 1012.3 hPa | 0 mm | - | 781 W/m² | - |
| 1778258665 | 23.33° C | 34% | 1012.1 hPa | 0 mm | - | 769 W/m² | - |
| 1778258362 | 23.33° C | 36% | 1012.3 hPa | 0 mm | - | 762 W/m² | - |
| 1778258060 | 22.78° C | 37% | 1012.2 hPa | 0 mm | - | 748 W/m² | - |
| 1778257755 | 22.78° C | 36% | 1012.6 hPa | 0 mm | - | 741 W/m² | - |
| 1778257453 | 22.78° C | 36% | 1012.6 hPa | 0 mm | - | 734 W/m² | - |
| 1778257149 | 22.78° C | 37% | 1012.5 hPa | 0 mm | - | 719 W/m² | - |
| 1778256847 | 22.22° C | 39% | 1012.7 hPa | 0 mm | - | 712 W/m² | - |
| 1778256544 | 22.22° C | 39% | 1012.5 hPa | 0 mm | - | 701 W/m² | - |
| 1778256243 | 22.22° C | 39% | 1012.8 hPa | 0 mm | - | 688 W/m² | - |
| 1778255938 | 22.22° C | 40% | 1012.7 hPa | 0 mm | - | 678 W/m² | - |
* Rain latest hour (hover to see other rain measurements)
** Current wind speed in m/s (hover to see current wind gust speed)